Temp_Advection
nan nan nan nan nan nan nan nan nan nan nan nan nan nan nan nan nan nan nan nan nan nan nan nan nan nan nan nan nan nan nan nan nan nan nan nan nan nan nan nan nan nan
nan -0 -0 -1 -1 -1 -1 -1 -1 -0 -0 -0 -0 -0 -0 -0 -0 -0 -0 -0 -0 -0 -0 -0 -0 -0 -0 -0 -0 -0 -0 -0 -0 -0 -0 -0 -0 -0 -0 -0 -0 nan
nan -0 -0 -1 -1 -1 -1 -0 -0 -0 -0 -0 -0 -0 -0 -0 -0 -0 -1 -1 -0 -0 -0 -0 -0 -0 -0 -0 -0 -0 -0 -0 -0 -0 -0 -0 -0 -0 -0 -0 -1 nan
nan -1 -1 -1 -1 -1 -1 -0 -0 -0 -0 -0 -0 -0 -0 -0 -1 -1 -1 -1 -1 -1 -0 -0 -0 -0 -0 -0 -0 -0 -0 -0 -0 -0 -0 -0 -0 -0 -0 -0 -1 nan
nan -1 -1 -1 -1 -1 -0 -0 -0 -0 -0 -0 -0 -0 -0 -0 -1 -1 -1 -1 -0 -0 -0 -0 -0 -0 -0 -0 -0 -0 -0 -0 -0 -0 -1 -0 -0 -0 -0 -0 -0 nan
nan -0 -0 -0 -0 -0 -0 -0 -0 -0 -0 -0 -0 -0 -0 -0 -0 -0 -0 -0 -0 -0 -0 -0 -0 -0 -0 -0 -0 -0 -0 -0 -0 -0 -0 -0 0 0 0 0 -0 nan
nan -0 -0 -0 -0 -0 -0 -0 -0 -0 -0 -0 -0 -0 -0 -0 -0 -0 -0 -0 -0 -0 -1 -0 -0 -1 -0 -1 -0 -0 -0 -0 -0 -0 0 -0 0 0 1 1 -0 nan
nan -0 -0 -0 -0 -0 -0 -0 -0 -0 -0 0 0 0 -0 -0 -0 -0 -0 -1 -1 -1 -1 -1 -1 -1 -1 -1 -1 -1 -1 -0 0 -0 -0 -0 0 0 1 1 0 nan
nan -0 -0 -0 -0 -0 0 -0 0 0 -0 0 -0 0 0 -0 -0 -0 -0 -1 -1 -0 -0 -0 -1 -1 -0 -0 -1 -1 -1 -0 0 -0 0 -0 -0 0 1 1 0 nan
nan -0 -0 -0 -0 -0 0 -0 0 0 -0 -0 -0 0 0 0 -0 -0 -0 -0 -1 -0 -0 -0 -0 -0 -0 -0 -0 -1 -1 -1 -0 -0 0 0 0 0 0 1 1 nan
nan -0 -0 -0 -0 -0 -0 -0 -0 -0 0 -0 -0 0 0 0 0 0 -0 -0 -0 -0 0 -0 -0 -0 -0 -0 -0 -0 -1 -0 -0 -0 0 0 0 0 1 1 1 nan
nan -0 -0 -0 -0 -0 -0 -0 -0 0 0 0 -0 0 0 0 0 0 0 -0 -0 -0 0 0 0 -0 -0 -0 -0 -0 -1 -0 -0 -1 -0 0 0 1 1 1 1 nan
nan -0 -0 -0 -0 -0 -0 -0 0 0 0 0 0 0 0 0 0 0 0 0 -0 -0 0 0 0 0 -0 -0 -0 -0 -1 -1 -0 -1 -1 -0 0 1 1 1 1 nan
nan -0 -0 -0 -0 -0 -0 -0 -0 0 0 0 0 0 0 0 0 0 0 0 -0 -0 0 0 1 0 0 0 -0 -0 -0 -0 -0 -0 -1 -1 -0 -0 1 1 1 nan
nan -0 -0 -0 -0 -0 -0 -0 -0 0 0 0 0 0 0 0 0 0 0 0 0 0 0 1 1 1 0 0 0 -0 -0 -1 -1 -0 -1 -1 -1 -2 -1 0 1 nan
nan 0 0 -0 -0 -0 -0 -0 -0 0 0 0 0 0 0 0 0 0 0 0 -0 0 0 1 1 1 0 0 1 0 -1 -1 -2 -2 -1 -2 -2 -3 -3 -2 -0 nan
nan 0 0 -0 -0 -0 -0 -0 -0 -0 -0 0 0 0 0 0 0 0 0 0 -0 -0 0 1 1 2 1 0 1 1 1 -0 -1 -2 -2 -2 -1 -2 -3 -3 -2 nan
nan 0 0 0 -0 -0 -0 -0 -0 -0 -0 0 0 0 0 0 0 0 0 0 -0 -0 0 1 1 2 1 0 0 1 1 1 1 -0 -0 -0 0 0 -1 -2 -1 nan
nan 0 0 0 0 -0 -0 -0 -0 -0 -0 -0 0 0 0 0 0 0 0 0 -0 -0 -0 0 2 2 2 1 1 1 1 1 1 1 1 1 1 1 0 -1 0 nan
nan 0 0 0 0 -0 -0 0 -0 -0 0 -0 -0 -0 -0 0 0 0 1 1 0 -0 -1 -0 1 2 2 1 1 1 1 1 0 0 1 1 1 2 1 -0 0 nan
nan 0 0 0 0 -0 -0 0 -0 -0 0 -0 -0 -0 -0 -0 -0 -0 0 1 1 -0 -1 -0 1 2 2 1 1 1 1 0 -0 0 0 0 1 2 2 1 1 nan
nan 0 0 0 0 0 -0 0 -0 -0 0 -0 -0 -0 -0 -0 -0 -0 -0 -0 1 0 -1 -1 1 3 2 1 2 2 1 0 -0 -0 -0 -1 0 1 1 1 2 nan
nan 0 0 0 -0 -0 -0 -0 -0 -0 0 -0 -1 -0 -0 -0 -1 -0 -0 -0 0 1 -1 -3 -0 2 2 1 1 2 2 1 -0 -0 -1 -1 -1 0 1 0 0 nan
nan 0 -0 -0 -0 -0 -0 -0 -0 -0 0 -0 -1 -1 -0 -0 -1 -1 0 0 -0 0 0 -2 -2 1 2 1 1 2 2 1 0 -0 -1 -1 -0 -0 -0 -0 -1 nan
nan 0 0 -0 -0 -0 -0 -0 -0 -0 0 -0 -0 -1 -1 -0 -0 -1 -1 1 0 0 1 -0 -2 -0 2 2 1 1 2 1 0 -0 -1 -1 -0 -0 -1 -1 -1 nan
nan nan nan nan nan nan nan nan nan nan nan nan nan nan nan nan nan nan nan nan nan nan nan nan nan nan nan nan nan nan nan nan nan nan nan nan nan nan nan nan nan nan
Wind_Speed
18 18 17 17 17 18 19 20 21 21 22 22 22 22 22 23 24 25 26 26 27 28 28 28 28 28 27 28 28 28 29 29 29 31 31 31 32 32 32 32 32 33
17 16 16 17 18 19 19 20 20 20 20 20 21 21 22 23 24 25 26 26 27 27 27 27 26 26 27 27 27 27 28 29 29 30 31 31 32 32 32 32 32 33
16 16 16 17 18 19 19 19 19 19 19 19 20 21 22 24 25 26 26 27 27 27 26 26 26 26 26 26 27 27 28 29 30 30 30 31 31 32 32 32 32 32
16 16 17 17 18 18 18 18 18 18 18 18 20 21 23 24 25 26 27 27 27 26 26 26 26 26 26 27 27 28 28 29 29 30 30 30 31 31 31 31 32 32
16 17 17 18 18 18 17 17 17 17 17 18 20 22 24 25 26 26 27 27 27 26 26 26 26 27 27 27 27 27 28 29 29 30 31 31 31 31 31 31 32 32
17 17 17 18 18 17 17 17 17 17 17 18 20 22 24 25 26 27 27 27 27 27 27 27 26 27 27 27 28 28 28 29 29 30 31 31 31 30 31 31 31 31
17 18 18 18 17 17 17 17 17 17 18 19 21 23 24 25 26 27 27 27 27 27 27 27 27 27 27 28 28 28 28 29 30 30 30 31 31 31 30 30 31 31
18 18 18 18 17 17 16 17 17 18 19 21 22 23 24 25 26 26 27 27 27 27 27 27 28 27 27 29 29 29 29 29 30 31 31 31 31 31 30 30 31 31
18 18 18 18 17 17 17 17 18 18 20 21 22 23 24 25 26 27 27 27 28 28 28 28 28 28 28 29 30 30 30 30 30 31 32 32 32 32 31 31 32 32
18 18 18 18 17 17 17 17 18 19 20 21 23 24 25 25 26 27 27 28 28 28 28 28 28 28 28 29 30 30 31 31 31 31 32 32 33 32 32 32 32 32
19 19 18 18 17 17 17 18 19 20 21 22 23 24 25 26 27 27 28 28 28 29 29 28 28 28 28 29 30 30 31 32 32 32 33 33 33 33 32 32 32 32
19 19 19 18 17 18 18 19 20 21 22 23 25 26 27 27 28 28 28 28 28 29 29 29 28 28 29 29 31 31 31 32 32 33 33 33 34 33 32 32 32 32
20 20 19 18 18 19 19 20 21 22 23 24 26 27 28 28 28 28 28 28 28 28 29 29 28 28 29 30 31 32 32 33 33 33 34 34 34 34 33 33 33 31
20 20 19 19 19 20 20 21 22 23 25 26 27 28 28 29 29 29 28 27 28 29 29 29 29 28 28 30 31 32 32 33 34 34 35 35 35 35 35 34 34 33
21 20 19 19 20 21 21 22 23 25 26 27 27 28 29 29 29 29 29 28 27 28 29 29 29 28 28 29 31 32 33 33 34 35 36 37 37 37 36 35 35 35
21 20 20 20 20 21 22 23 24 26 27 27 28 29 29 29 29 28 29 29 28 28 29 30 30 28 28 29 31 32 34 35 36 37 37 38 40 39 38 38 37 37
22 21 20 20 21 22 22 24 25 26 28 29 29 30 29 29 29 29 28 29 29 29 30 30 30 29 28 29 30 31 33 34 36 37 38 38 39 40 40 40 39 39
22 21 21 21 21 22 23 24 26 27 28 30 30 30 30 29 29 29 29 29 29 30 30 31 30 28 28 29 30 29 30 32 34 36 38 38 39 40 41 41 41 40
23 22 22 22 22 22 23 25 26 28 29 31 31 31 31 30 29 30 30 30 30 30 31 32 31 29 28 29 29 30 29 31 34 36 38 39 40 40 41 42 42 41
23 22 22 22 22 23 24 25 27 29 30 31 32 32 32 31 30 30 30 30 31 31 31 32 31 30 30 29 30 30 30 31 34 37 38 40 41 42 42 42 42 41
23 22 22 22 23 24 25 27 28 30 31 31 32 33 32 32 31 32 32 31 32 32 32 32 32 32 31 30 31 31 31 32 35 37 39 41 42 43 43 43 42 42
22 23 22 23 24 25 26 28 29 30 31 32 32 33 33 33 32 33 33 33 33 34 34 33 31 32 32 31 32 32 32 34 36 38 40 42 43 43 44 44 44 43
22 23 23 24 25 26 28 29 30 31 32 32 33 33 34 34 34 34 35 35 34 34 36 35 33 32 33 33 32 33 35 37 38 40 41 42 43 43 43 45 45 45
22 23 24 25 26 27 29 30 31 32 32 33 33 34 35 35 35 35 35 36 36 35 36 37 35 32 33 34 33 34 36 38 40 42 43 43 43 44 44 45 46 46
22 24 25 26 27 28 29 31 31 32 32 33 33 34 35 36 36 36 37 37 37 37 37 38 37 35 34 34 34 34 36 38 40 42 43 44 44 44 45 46 46 46
23 24 25 26 28 29 30 31 31 32 32 33 33 34 35 36 36 37 38 38 38 39 38 38 38 37 34 34 34 34 34 36 39 41 42 43 43 44 46 46 46 46
Wind_Direction
346 341 337 338 342 347 351 352 354 355 355 355 355 354 352 351 350 349 348 348 346 345 343 342 341 340 341 341 341 341 341 341 340 339 339 339 337 336 335 332 331 329
337 332 332 339 346 349 351 352 353 354 353 352 351 350 349 347 346 346 345 344 343 342 341 340 339 338 339 339 339 339 340 339 339 337 338 338 336 334 333 331 329 328
326 327 335 344 348 349 349 350 351 351 350 349 347 346 345 343 344 343 342 341 341 340 339 338 337 337 337 337 337 338 338 338 336 335 335 335 333 331 330 328 327 328
324 333 343 347 348 347 347 347 347 347 347 345 343 342 342 342 342 341 340 340 339 338 337 335 335 335 335 336 336 336 336 335 333 332 332 332 330 328 328 327 326 327
333 341 345 345 345 344 343 343 343 343 343 342 341 340 340 339 339 338 338 337 336 335 334 334 334 334 334 333 333 334 333 331 330 329 329 328 328 327 326 326 325 325
338 340 342 342 341 341 340 339 338 338 339 339 338 337 337 336 336 335 335 335 334 333 332 332 332 332 331 330 330 330 329 328 327 326 326 326 326 326 325 323 323 323
335 337 339 339 338 336 335 333 332 333 334 335 335 334 334 333 333 332 332 331 331 331 330 329 329 329 329 327 326 327 327 326 325 324 323 323 323 323 323 321 321 323
331 334 335 335 333 331 329 328 328 329 331 332 331 331 330 329 329 329 329 329 329 329 328 328 327 327 327 325 324 325 325 324 323 322 321 321 320 321 321 321 321 322
328 331 332 331 329 326 324 324 324 325 326 326 326 326 325 326 326 327 328 328 328 327 327 326 325 325 325 323 322 322 322 321 320 319 319 319 319 320 321 321 320 320
326 329 329 326 324 321 319 317 316 318 319 320 321 323 324 324 325 326 326 326 326 325 324 324 323 323 323 321 320 319 319 318 318 317 317 317 318 320 321 320 318 317
325 326 324 321 318 314 311 310 310 313 315 318 320 322 323 323 324 325 324 324 324 322 321 322 321 321 321 319 317 316 316 316 316 316 316 316 317 318 318 317 316 316
323 322 319 315 312 307 306 306 307 311 314 318 320 322 322 322 322 322 322 321 320 319 319 319 319 320 318 317 315 314 314 315 314 314 315 315 315 315 315 314 315 315
319 317 313 310 306 304 303 304 307 311 315 318 319 320 320 320 319 319 318 317 317 316 316 316 317 318 317 316 314 314 314 314 314 313 313 313 312 312 313 314 315 316
314 311 308 304 303 302 303 305 309 312 314 316 318 318 318 317 316 316 315 314 314 313 313 314 315 317 317 315 313 313 314 313 312 311 310 310 311 312 314 315 316 317
308 306 304 302 302 303 304 307 309 310 312 314 315 315 315 314 313 313 312 311 311 311 311 312 314 317 318 315 313 313 312 310 309 309 309 310 311 312 314 316 317 317
306 305 304 303 302 303 304 305 306 308 310 312 312 312 312 311 311 310 310 310 311 311 311 312 314 317 318 315 313 313 313 312 311 311 312 311 311 312 313 314 315 314
305 305 304 302 301 301 301 302 304 306 308 310 310 310 309 310 310 310 309 310 311 311 312 312 314 318 318 315 314 314 313 312 311 310 310 309 308 308 308 310 311 311
304 304 302 301 300 299 300 301 303 306 308 308 308 308 309 310 310 310 310 311 312 312 312 312 315 319 318 315 313 312 310 308 307 306 306 305 304 303 304 305 307 308
302 301 300 299 299 299 300 302 304 306 307 307 307 308 309 311 311 311 311 312 313 313 313 313 316 318 318 315 313 311 309 307 304 303 302 301 301 301 301 303 304 305
299 299 298 299 300 301 303 304 305 306 307 307 308 309 310 311 312 312 312 313 314 314 314 314 315 317 317 316 314 312 310 306 302 301 300 300 300 301 301 302 304 304
298 299 300 302 303 304 305 305 305 306 306 307 308 310 311 312 313 313 312 314 315 315 314 314 315 317 318 317 315 312 309 305 301 299 299 299 300 301 302 302 303 302
299 302 304 305 306 306 305 305 306 306 307 308 309 310 311 312 313 313 313 315 316 315 314 314 315 317 318 316 314 312 308 304 300 299 298 299 300 301 301 302 301 300
303 305 306 307 306 306 305 306 306 307 308 309 310 310 311 313 314 314 314 315 315 315 314 314 316 318 317 315 314 311 307 304 301 299 298 298 299 299 299 299 299 299
305 306 307 306 306 306 306 306 307 307 309 310 310 311 312 313 313 314 314 314 315 315 314 314 315 317 316 314 312 310 306 303 302 300 300 299 300 299 298 297 297 298
306 306 306 306 306 306 306 306 307 308 309 310 310 311 311 312 313 313 314 314 314 314 313 313 314 315 315 313 311 308 305 303 302 301 300 300 299 297 296 295 295 296
305 305 305 306 307 306 306 306 307 308 309 309 310 310 310 311 312 313 313 313 313 312 312 313 313 314 314 312 309 307 305 303 302 300 300 299 298 296 295 295 296 296
Height
1589 1588 1587 1586 1585 1583 1581 1579 1577 1576 1574 1572 1571 1570 1568 1567 1566 1564 1562 1560 1558 1556 1555 1553 1551 1549 1547 1545 1543 1542 1540 1538 1536 1534 1532 1531 1528 1526 1524 1522 1521 1519
1588 1587 1586 1585 1582 1580 1579 1577 1576 1574 1573 1571 1570 1569 1567 1566 1564 1562 1561 1559 1557 1556 1553 1552 1550 1547 1546 1544 1542 1540 1539 1536 1534 1532 1530 1528 1526 1524 1522 1520 1519 1517
1588 1586 1585 1582 1580 1579 1577 1576 1574 1573 1572 1570 1568 1567 1566 1564 1563 1561 1559 1557 1555 1554 1552 1550 1548 1546 1544 1543 1541 1539 1537 1534 1532 1530 1528 1527 1525 1522 1521 1519 1516 1515
1586 1584 1581 1580 1578 1577 1575 1574 1573 1571 1570 1569 1567 1566 1564 1562 1561 1559 1557 1555 1553 1552 1550 1548 1546 1544 1542 1540 1538 1536 1534 1532 1530 1528 1526 1525 1523 1520 1518 1516 1514 1512
1583 1580 1579 1578 1576 1575 1574 1572 1571 1570 1569 1567 1565 1564 1562 1560 1559 1557 1555 1554 1552 1550 1548 1546 1544 1542 1540 1538 1536 1535 1532 1530 1528 1526 1524 1522 1521 1518 1515 1513 1511 1509
1579 1578 1577 1576 1574 1573 1572 1570 1569 1568 1567 1565 1564 1562 1560 1559 1557 1555 1553 1552 1550 1548 1546 1544 1542 1540 1538 1536 1534 1533 1531 1528 1526 1524 1522 1519 1518 1516 1513 1510 1508 1506
1577 1576 1575 1574 1572 1571 1570 1569 1567 1566 1565 1563 1562 1560 1559 1557 1556 1554 1552 1550 1548 1546 1544 1542 1540 1538 1536 1533 1532 1530 1528 1526 1523 1521 1519 1517 1515 1513 1511 1508 1505 1503
1575 1574 1573 1572 1571 1569 1568 1567 1566 1564 1563 1561 1560 1559 1557 1556 1554 1552 1550 1548 1546 1544 1542 1539 1537 1535 1533 1531 1529 1527 1525 1523 1521 1518 1516 1514 1512 1510 1508 1505 1502 1500
1574 1572 1571 1570 1569 1568 1566 1565 1564 1563 1561 1560 1559 1558 1556 1554 1552 1550 1548 1546 1543 1541 1539 1537 1535 1533 1531 1528 1525 1524 1522 1520 1518 1516 1513 1511 1509 1507 1504 1502 1498 1496
1572 1570 1569 1568 1567 1566 1565 1564 1562 1561 1560 1559 1557 1556 1554 1552 1549 1547 1545 1543 1541 1538 1536 1534 1532 1530 1528 1525 1523 1521 1519 1517 1515 1513 1510 1507 1505 1503 1500 1498 1495 1493
1569 1568 1568 1566 1565 1564 1563 1562 1561 1560 1558 1557 1555 1553 1551 1549 1546 1544 1542 1540 1538 1536 1534 1532 1529 1527 1525 1523 1520 1518 1516 1513 1511 1509 1507 1504 1501 1499 1497 1494 1492 1489
1567 1567 1565 1564 1564 1563 1561 1560 1559 1557 1556 1554 1552 1550 1548 1546 1544 1542 1540 1538 1536 1533 1531 1529 1527 1525 1522 1520 1517 1515 1513 1510 1508 1505 1503 1500 1498 1496 1494 1491 1489 1486
1565 1565 1563 1563 1562 1560 1559 1558 1556 1555 1553 1551 1549 1547 1545 1543 1541 1539 1537 1535 1533 1531 1529 1526 1524 1522 1520 1517 1514 1511 1509 1506 1504 1501 1499 1497 1495 1492 1490 1488 1485 1483
1564 1563 1562 1561 1559 1558 1557 1555 1553 1552 1550 1548 1546 1544 1542 1540 1538 1537 1535 1533 1531 1528 1526 1524 1521 1520 1517 1514 1510 1508 1505 1502 1500 1497 1495 1492 1491 1488 1487 1484 1481 1479
1562 1561 1559 1558 1556 1555 1554 1552 1550 1549 1547 1546 1544 1542 1540 1538 1536 1534 1532 1530 1529 1526 1523 1520 1518 1517 1514 1510 1507 1504 1501 1499 1496 1494 1491 1488 1485 1483 1482 1480 1477 1474
1559 1558 1557 1555 1554 1552 1551 1549 1548 1546 1544 1543 1541 1539 1538 1535 1533 1532 1529 1527 1525 1522 1520 1517 1515 1513 1511 1508 1504 1500 1496 1493 1491 1488 1486 1482 1479 1477 1476 1474 1472 1470
1556 1555 1554 1552 1551 1550 1549 1547 1545 1544 1542 1540 1538 1536 1535 1532 1530 1528 1525 1523 1521 1518 1516 1514 1512 1510 1507 1504 1501 1498 1494 1489 1486 1483 1481 1478 1475 1473 1471 1469 1468 1466
1553 1552 1551 1550 1549 1548 1546 1544 1543 1541 1539 1537 1535 1533 1531 1529 1526 1524 1521 1519 1517 1515 1512 1510 1508 1507 1504 1501 1498 1496 1493 1488 1484 1480 1477 1475 1472 1469 1467 1465 1463 1461
1550 1549 1548 1547 1546 1545 1543 1541 1539 1537 1536 1533 1531 1529 1526 1524 1522 1520 1518 1516 1513 1511 1508 1506 1504 1503 1501 1498 1495 1492 1490 1486 1482 1478 1474 1471 1469 1466 1464 1462 1459 1457
1548 1547 1546 1544 1543 1541 1539 1538 1536 1534 1532 1529 1527 1524 1522 1520 1518 1516 1514 1512 1510 1507 1505 1502 1500 1498 1497 1494 1491 1488 1486 1482 1478 1474 1471 1468 1465 1462 1460 1457 1455 1453
1545 1544 1543 1541 1539 1538 1536 1534 1532 1530 1528 1525 1523 1520 1518 1516 1514 1512 1509 1508 1505 1503 1501 1498 1496 1494 1493 1490 1487 1484 1481 1478 1474 1470 1467 1463 1461 1458 1455 1453 1450 1448
1542 1540 1539 1537 1535 1534 1532 1530 1528 1526 1524 1521 1519 1516 1514 1512 1510 1508 1505 1503 1501 1498 1496 1494 1493 1491 1488 1486 1483 1480 1476 1472 1469 1465 1462 1459 1456 1454 1451 1447 1445 1442
1538 1537 1535 1534 1532 1531 1529 1527 1524 1522 1520 1517 1515 1512 1510 1508 1506 1504 1501 1499 1497 1495 1491 1489 1489 1487 1484 1482 1479 1475 1471 1466 1463 1460 1456 1453 1451 1449 1446 1442 1439 1437
1535 1533 1532 1530 1529 1527 1525 1523 1520 1518 1516 1514 1511 1508 1506 1504 1502 1499 1497 1494 1492 1490 1488 1485 1484 1484 1481 1477 1475 1472 1466 1461 1457 1454 1450 1448 1445 1442 1440 1437 1434 1431
1532 1531 1529 1527 1525 1523 1521 1519 1517 1514 1512 1510 1507 1505 1502 1500 1497 1495 1492 1490 1488 1486 1484 1481 1479 1479 1477 1473 1470 1468 1463 1457 1453 1448 1444 1441 1439 1436 1433 1431 1428 1426
1529 1528 1526 1524 1521 1519 1517 1515 1513 1511 1509 1506 1504 1501 1498 1496 1494 1491 1488 1486 1484 1481 1479 1477 1475 1473 1472 1470 1466 1463 1459 1454 1448 1444 1439 1435 1432 1429 1426 1423 1422 1420